Wind_Speed
11 10 21 26 22 13 12 4 9 5 7 6 6 6 10 8 4 8 9 8 9 10 11 17 18 21 22 23 20 17 21 25 26 26 24 23 25 24 22 21 20 19 16 18
7 26 19 10 14 15 13 6 4 2 4 5 4 5 8 4 6 8 11 9 10 6 6 7 17 21 26 30 29 25 23 24 25 25 24 17 24 24 27 27 25 27 23 18
18 5 17 16 17 19 19 14 5 5 2 1 2 5 5 5 5 6 7 6 7 11 11 8 7 21 25 27 33 34 26 23 23 23 23 16 15 20 20 26 29 25 21 19
16 14 24 22 21 17 18 10 6 6 4 2 2 4 4 3 6 6 9 8 7 8 7 7 7 10 22 28 17 19 20 21 22 22 20 19 10 5 9 16 17 15 15 16
12 12 16 22 22 19 7 15 11 4 4 2 2 4 7 1 3 7 3 8 5 6 8 9 9 20 12 13 13 11 10 11 14 15 15 18 18 6 7 4 4 8 6 9
12 12 15 19 19 17 13 13 8 4 4 4 6 6 5 1 3 7 4 5 6 6 7 6 5 10 14 18 17 19 19 15 12 11 11 10 7 3 2 3 5 5 1 2
17 18 15 16 16 17 18 16 4 1 2 5 9 6 5 3 4 5 2 4 7 8 8 7 8 10 16 18 21 21 21 20 14 13 12 10 12 15 16 13 13 12 11 12
16 14 16 17 20 13 13 11 5 6 5 4 1 7 4 2 3 4 5 7 12 13 11 12 12 15 21 23 26 32 33 32 28 27 27 24 22 20 19 17 15 14 14 13
12 8 17 13 10 15 23 10 8 6 1 6 4 2 2 4 5 6 8 12 14 14 13 14 13 20 22 24 25 32 36 32 27 25 22 20 18 17 17 14 13 14 12 12
5 5 18 12 12 9 23 12 9 1 5 5 3 5 6 5 7 8 10 15 15 14 15 15 14 21 23 27 29 31 31 29 24 22 19 17 16 15 14 13 14 12 12 12
3 4 1 14 6 18 10 12 5 5 4 5 5 3 4 6 6 12 12 12 13 13 13 12 12 22 24 29 30 31 29 27 24 21 18 17 16 14 12 14 13 14 14 14
3 2 2 5 7 12 4 13 6 5 2 2 3 3 3 7 7 9 11 10 9 12 12 12 15 22 22 23 27 27 24 22 18 17 17 18 16 13 12 12 10 11 14 15
4 2 5 9 7 7 7 5 5 5 4 5 5 3 4 7 7 7 15 13 12 13 13 12 12 15 19 21 24 24 20 19 18 17 17 15 13 11 11 11 11 12 13 13
3 3 4 4 7 10 13 13 8 6 4 5 2 11 9 11 12 10 11 14 13 12 12 12 12 13 18 20 23 23 21 18 17 16 15 13 11 10 10 10 11 12 12 12
4 3 1 10 16 16 11 15 13 8 6 7 9 15 18 14 15 12 13 14 14 12 13 11 11 9 16 20 21 19 17 16 14 14 12 11 10 10 9 9 9 9 10 12
3 2 1 5 10 9 8 13 15 7 8 9 16 10 11 11 16 15 14 15 14 12 13 12 12 16 16 15 14 15 14 12 11 11 12 12 11 9 10 11 12 11 12 14
5 3 4 3 3 5 6 2 4 5 1 18 8 10 19 17 16 15 14 15 16 14 12 12 11 12 12 15 15 14 12 10 10 11 11 11 10 8 9 12 10 12 13 15
3 4 3 3 3 3 3 2 8 17 9 12 22 20 18 18 16 15 11 15 15 12 11 9 11 14 15 13 12 10 11 11 12 13 13 12 10 11 11 12 13 13 15 17
4 3 4 4 3 3 4 5 3 4 8 12 24 21 22 22 22 14 13 14 14 12 12 12 12 11 11 12 10 8 9 11 12 14 14 12 11 11 14 14 16 15 17 18
6 5 3 2 4 3 1 3 10 1 7 14 17 21 23 19 11 5 9 12 13 15 11 10 9 9 12 12 8 9 12 13 14 12 11 10 10 11 13 14 15 15 14 17
3 2 1 5 3 3 1 4 7 4 8 16 18 18 10 5 6 13 11 13 15 12 10 9 10 12 11 10 10 9 9 12 12 10 9 9 9 11 11 13 13 13 13 15
2 2 2 2 3 4 12 6 3 11 15 16 14 16 21 20 18 14 13 11 13 12 10 10 10 12 12 11 7 7 12 14 13 12 11 11 11 11 10 11 12 11 13 15
2 3 4 5 3 7 11 13 13 13 18 13 18 16 21 19 15 13 12 11 12 11 11 11 12 11 10 10 11 12 13 13 13 11 11 10 11 10 10 11 11 12 12 13
4 5 4 3 8 11 15 16 18 20 20 18 17 18 16 19 15 13 10 10 12 13 13 12 12 11 12 14 14 13 14 14 12 11 11 10 10 12 11 9 10 13 13 12
4 4 6 8 8 17 17 15 18 20 19 22 18 16 16 17 14 13 12 12 13 12 11 12 13 14 15 16 16 17 16 18 15 13 12 13 10 12 12 9 11 9 15 17
5 4 1 3 8 13 8 11 13 22 19 17 18 17 15 16 14 14 10 13 14 13 16 18 18 14 18 16 16 17 17 16 17 16 13 13 11 10 12 10 7 8 6 11
Wind_Direction
179 187 205 198 206 218 192 155 185 187 195 149 208 204 244 259 208 244 250 229 227 214 232 237 219 218 217 215 208 205 208 209 205 200 198 206 208 207 212 219 223 227 231 235
167 218 200 189 192 204 232 192 188 252 145 142 186 228 233 228 221 201 220 221 218 219 230 227 205 205 214 217 217 223 223 219 212 205 204 208 212 218 221 220 236 247 252 245
198 240 178 190 185 194 211 207 168 131 63 52 115 301 238 243 219 214 234 218 203 214 212 218 201 208 213 217 221 227 231 223 215 209 211 213 217 230 227 244 251 258 260 275
223 219 181 189 203 185 205 175 157 149 94 187 115 263 278 237 258 219 225 211 219 235 243 190 205 195 214 220 216 219 220 214 214 216 219 222 224 234 256 260 268 268 266 263
207 181 198 200 199 183 198 162 179 143 134 103 284 81 265 340 237 228 60 75 54 337 253 236 206 207 205 187 189 199 199 208 216 228 237 238 242 236 257 278 299 272 265 246
219 178 196 197 197 180 156 160 145 73 107 255 194 141 280 93 297 309 1 37 43 14 357 360 94 105 111 126 131 133 131 134 154 164 181 204 229 255 267 329 39 30 342 297
196 223 201 166 179 195 162 154 119 121 188 216 179 144 231 320 324 251 293 46 74 68 57 48 75 87 87 94 110 112 119 104 116 127 122 113 99 92 90 87 79 81 72 53
188 199 207 185 185 174 183 162 148 154 153 155 191 185 264 35 42 66 87 86 77 71 72 79 87 86 81 87 99 107 105 104 104 104 99 97 93 91 90 88 80 67 58 52
187 217 179 190 158 161 187 195 152 106 168 115 166 63 61 71 63 74 87 87 83 84 74 71 70 74 80 82 88 98 102 103 102 99 96 90 87 85 86 84 81 77 59 48
222 129 177 191 164 165 181 156 159 18 147 126 209 167 170 166 139 116 106 99 91 84 79 75 70 72 74 83 91 95 97 95 92 89 86 85 79 74 74 71 63 58 56 30
316 113 340 176 185 170 148 170 136 136 129 142 139 218 200 156 153 135 118 105 100 92 86 81 77 76 80 86 90 92 93 95 92 91 89 86 83 81 79 67 50 35 25 22
157 125 114 177 174 186 134 169 120 133 172 89 115 155 94 126 127 135 112 95 89 90 94 91 87 85 75 76 83 89 89 91 96 99 99 98 97 93 84 74 50 29 22 9
199 123 129 117 89 210 212 181 142 112 104 185 126 183 124 126 119 131 116 106 101 101 93 83 77 72 73 71 78 82 82 83 86 91 92 90 85 74 61 50 31 18 12 5
199 143 188 178 129 135 189 182 166 136 120 159 192 136 152 141 139 120 108 109 104 93 89 84 72 70 70 66 69 76 82 87 93 92 88 81 70 60 48 26 8 358 357 353
207 167 205 130 137 148 152 172 176 171 159 149 172 154 164 151 141 124 119 113 102 92 82 75 74 63 61 61 64 69 74 76 79 81 77 69 64 51 32 11 357 351 352 351
226 107 73 81 100 118 143 169 178 163 96 68 115 85 120 105 113 122 123 113 99 88 83 72 65 57 50 48 58 63 60 59 61 58 48 39 33 18 8 360 355 353 352 349
19 57 63 39 30 117 78 27 128 107 124 140 145 153 132 126 122 125 125 113 109 102 91 81 71 64 57 50 47 42 33 30 33 36 31 29 25 16 6 357 351 351 351 348
349 50 63 94 32 111 258 231 107 91 52 103 109 130 121 111 94 85 90 106 104 98 91 79 73 57 45 39 35 23 17 20 23 24 18 18 14 7 1 355 356 358 355 360
36 65 71 107 82 163 69 135 130 121 50 128 120 118 118 116 89 58 73 85 95 93 85 78 70 59 43 33 29 30 32 32 28 22 16 4 4 356 352 356 357 1 1 5
54 44 53 98 96 175 43 112 112 88 89 116 123 129 136 144 126 138 106 94 88 84 83 77 65 56 49 36 36 37 28 20 12 3 352 354 357 352 352 349 354 359 2 6
81 50 92 110 100 92 354 340 328 149 157 136 138 141 123 90 94 115 105 90 85 82 79 74 63 54 42 27 29 31 18 12 3 347 342 352 354 349 349 344 356 359 1 5
116 160 80 83 106 111 355 328 115 138 108 110 98 105 105 106 104 108 101 91 85 77 70 67 68 57 45 38 31 23 20 13 3 352 355 359 356 355 350 354 1 7 9 4
64 0 117 40 58 35 40 79 75 103 105 109 108 113 112 111 106 108 102 95 88 79 73 66 59 53 39 30 26 21 12 5 356 2 1 359 355 2 3 7 12 20 23 21
54 12 85 127 20 62 63 70 75 84 91 95 95 104 107 108 112 105 101 97 88 76 66 57 54 48 37 28 28 24 15 14 15 11 6 0 5 3 13 31 38 41 37 26
13 26 102 82 113 79 53 65 89 86 88 90 86 91 102 106 100 102 98 91 80 70 60 51 44 37 28 24 26 24 16 20 18 17 12 12 10 8 14 45 53 65 52 42
355 172 103 88 86 101 89 80 88 96 93 96 102 95 87 96 101 105 94 77 72 62 53 47 41 32 28 24 24 24 23 25 24 18 15 14 14 15 21 30 74 66 56 29
Height
710 715 705 701 712 715 717 722 725 723 716 720 733 735 728 719 721 723 721 721 722 720 710 711 714 720 726 731 734 737 740 744 747 750 753 757 759 760 765 768 771 773 774 777
711 694 696 705 712 717 720 724 726 715 714 720 721 728 722 717 716 716 714 717 716 716 713 713 713 716 719 722 728 733 738 742 745 749 752 756 756 759 761 763 766 769 773 773
690 684 692 700 708 714 714 719 724 720 717 715 716 731 719 709 709 707 706 704 708 711 711 710 713 714 716 719 723 727 734 740 745 749 752 755 758 759 761 764 765 768 772 770
686 678 684 691 696 703 718 713 713 717 729 742 720 751 722 711 711 706 704 705 706 706 706 707 708 711 713 715 723 729 734 739 744 749 754 757 760 762 763 764 765 766 766 767
673 675 680 690 688 696 706 702 711 714 729 729 731 742 729 712 709 705 704 713 713 710 707 705 704 704 712 719 723 728 734 739 744 748 754 758 761 764 763 763 762 765 764 762
669 661 670 672 681 686 688 702 710 724 738 751 738 739 733 722 726 724 713 717 714 712 710 707 707 711 715 719 725 730 734 739 743 747 752 755 758 760 761 763 765 765 769 768
667 663 659 666 682 685 685 700 736 750 754 748 729 738 727 724 723 723 718 725 719 716 714 712 711 713 718 723 727 732 734 740 743 746 749 753 755 759 761 763 764 767 768 766
665 677 665 656 665 670 684 690 725 735 746 742 725 735 727 723 722 722 724 724 718 719 720 719 719 721 724 729 732 735 739 743 749 753 755 757 758 760 762 764 765 767 767 767
657 656 649 646 651 659 678 689 691 716 715 731 734 731 725 724 724 725 726 724 723 725 725 727 728 729 732 736 740 741 743 749 755 757 758 761 763 763 764 765 766 765 768 768
646 654 643 646 647 654 660 673 698 709 724 735 732 734 732 729 727 726 729 727 728 730 732 735 738 740 742 744 747 748 750 754 758 759 763 765 766 767 769 770 769 769 767 769
643 648 654 645 654 669 670 675 685 698 714 728 736 733 721 724 727 728 731 732 735 737 741 745 747 748 751 753 754 755 759 760 763 765 768 768 768 770 770 770 773 772 770 766
645 652 670 660 661 660 663 673 687 713 713 722 725 729 718 724 729 730 735 740 744 744 747 751 754 755 758 761 762 763 765 767 770 771 771 773 774 776 775 774 777 776 771 770
645 654 663 664 668 666 673 669 673 688 701 711 723 731 724 725 729 736 738 744 748 752 755 758 761 764 766 769 770 771 773 773 773 774 775 777 778 779 778 777 777 775 773 773
644 655 654 657 651 663 671 664 667 679 705 706 711 716 721 727 732 737 745 748 753 759 762 765 768 771 771 775 775 776 779 780 780 780 781 781 780 780 778 778 778 777 775 773
650 649 647 636 637 642 653 659 666 674 681 687 705 702 712 721 729 740 746 751 757 765 769 774 775 778 778 779 781 782 784 783 783 784 784 783 782 780 779 781 780 778 775 772
648 653 645 645 638 638 649 652 656 666 683 687 698 712 717 726 734 742 748 752 763 772 775 779 781 782 783 786 788 788 788 788 786 786 783 780 779 781 781 780 777 774 772 770
648 650 660 670 652 647 668 671 665 674 677 682 697 705 713 729 737 746 754 757 767 775 781 786 788 790 791 790 789 789 790 788 788 785 784 782 782 783 782 779 777 774 771 769
657 654 665 675 666 682 673 670 669 679 689 685 690 704 719 735 750 757 764 765 775 782 788 791 791 791 792 791 791 791 790 788 786 783 783 781 783 782 780 778 776 773 769 767
661 667 668 674 684 678 674 674 671 674 702 695 700 726 738 744 750 775 777 778 782 787 792 793 794 795 796 795 794 794 793 789 787 784 782 784 783 781 778 776 774 771 769 766
667 669 671 676 676 682 680 674 670 672 705 715 720 728 733 731 747 781 784 786 789 792 796 797 797 798 797 796 797 795 792 790 788 786 787 785 782 780 778 776 774 772 769 767
676 683 677 678 682 681 677 674 673 685 711 717 724 729 734 752 763 780 788 791 793 797 799 799 799 798 797 797 794 795 795 792 789 788 786 784 782 780 778 776 774 772 770 767
678 677 679 684 679 685 692 681 681 704 710 722 736 747 755 765 774 785 790 794 797 800 802 802 802 801 800 799 799 797 793 790 788 787 784 782 781 780 778 777 775 773 771 768
682 688 696 704 710 719 711 709 707 710 716 734 742 756 756 770 781 790 795 800 803 804 804 804 802 802 803 802 799 796 793 790 789 787 785 783 783 781 779 777 776 774 772 769
694 691 703 707 729 728 725 725 723 726 736 745 750 759 770 775 787 794 799 802 804 804 804 804 804 804 803 801 799 798 796 791 789 788 786 785 783 782 780 779 778 776 774 772
703 701 714 727 735 728 738 739 739 744 749 753 766 773 779 783 791 795 800 803 804 805 806 806 806 805 804 802 799 798 797 792 790 789 787 785 784 783 781 781 780 779 778 775
711 711 704 719 730 736 752 753 755 752 761 769 774 782 787 789 794 800 803 805 806 807 807 806 806 806 805 803 802 800 798 794 792 791 789 787 785 785 784 783 782 781 780 778